Location: Asheville, NC
(35.6000°N, 82.5500°W)
Time: 16:22:51
(UTC-05:00)

Vanguard 1 - Pass Details

Date: 11 February 2018
Orbit: 650 x 3833 km, 34.2° (Epoch: 21 February)

Event Time Altitude Azimuth Distance (km) Brightness Sun altitude
Rises 15:31:32 0° 214° (SW) 5,762 15.2 26.7°
Reaches altitude 10° 15:36:57 10° 202° (SSW) 4,131 14.5 25.9°
Maximum altitude 15:44:06 22° 157° (SSE) 2,482 12.5 24.8°
Drops below altitude 10° 15:49:01 10° 108° (ESE) 2,728 12.1 24.1°
Sets 15:51:43 0° 91° (E) 3,405 12.4 23.7°
